This demonstration page uses our WeatherBlox Daily Observations layout. Learn more.

Hourly Observations for March 9, 2016

Temp ( °F °C ) Dew Point ( °F °C ) Humidity (%) Winds ( mph kmh ) Pressure ( in mb ) Visibility ( mi km ) Precip ( " mm )
12:15 am 00:15 Clear 54 12 41 5 63 63 SSE 6 9 30.09 1019 10 16.09344 0 0
12:35 am 00:35 Clear 55 13 41 5 59 59 SSE 5 7 30.09 1019 10 16.09344 0 0
12:55 am 00:55 Clear 46 8 43 6 87 87 S 5 7 30.15 1021 10 16.09344 0 0
1:15 am 01:15 Clear 46 8 43 6 87 87 SSW 6 9 30.15 1021 10 16.09344 0 0
1:35 am 01:35 Clear 50 10 41 5 71 71 SSW 6 9 30.12 1020 10 16.09344 0 0
1:55 am 01:55 Clear 50 10 41 5 71 71 Calm 30.15 1021 10 16.09344 0 0
2:15 am 02:15 Clear 46 8 41 5 82 82 Calm 30.15 1021 10 16.09344 0 0
2:35 am 02:35 Clear 45 7 41 5 87 87 Calm 30.15 1021 10 16.09344 0 0
2:55 am 02:55 Clear 45 7 43 6 93 93 Calm 30.15 1021 10 16.09344 0 0
3:15 am 03:15 Clear 45 7 41 5 87 87 Calm 30.15 1021 10 16.09344 0 0
3:35 am 03:35 Clear 45 7 43 6 93 93 Calm 30.15 1021 10 16.09344 0 0
3:55 am 03:55 Clear 45 7 41 5 87 87 Calm 30.15 1021 10 16.09344 0 0
4:15 am 04:15 Clear 45 7 41 5 87 87 Calm 30.15 1021 10 16.09344 0 0
4:35 am 04:35 Clear 41 5 39 4 93 93 Calm 30.15 1021 10 16.09344 0 0
4:55 am 04:55 Clear 43 6 41 5 93 93 Calm 30.15 1021 10 16.09344 0 0
5:15 am 05:15 Clear 43 6 39 4 87 87 Calm 30.18 1022 10 16.09344 0 0
5:35 am 05:35 Clear 41 5 39 4 93 93 Calm 30.18 1022 10 16.09344 0 0
5:55 am 05:55 Clear 41 5 37 3 87 87 Calm 30.18 1022 10 16.09344 0 0
6:15 am 06:15 Clear 41 5 37 3 87 87 Calm 30.18 1022 10 16.09344 0 0
6:35 am 06:35 Sunny 41 5 39 4 93 93 Calm 30.18 1022 10 16.09344 0 0
6:55 am 06:55 Sunny 39 4 37 3 93 93 Calm 30.18 1022 10 16.09344 0 0
7:15 am 07:15 Sunny 41 5 39 4 93 93 Calm 30.21 1023 10 16.09344 0 0
7:35 am 07:35 Sunny 45 7 41 5 87 87 Calm 30.21 1023 10 16.09344 0 0
7:55 am 07:55 Sunny 50 10 45 7 82 82 Calm 30.21 1023 10 16.09344 0 0
8:15 am 08:15 Sunny 52 11 45 7 77 77 Calm 30.24 1024 10 16.09344 0 0
8:35 am 08:35 Sunny 55 13 45 7 67 67 Calm 30.21 1023 10 16.09344 0 0
8:55 am 08:55 Sunny 59 15 43 6 55 55 SSW 8 13 30.18 1022 10 16.09344 0 0
9:15 am 09:15 Sunny 61 16 45 7 55 55 Calm 30.21 1023 10 16.09344 0 0
9:35 am 09:35 Sunny 63 17 45 7 52 52 Calm 30.21 1023 10 16.09344 0 0
9:55 am 09:55 Sunny 66 19 45 7 46 46 Calm 30.21 1023 10 16.09344 0 0
10:15 am 10:15 Sunny 70 21 46 8 43 43 Calm 30.18 1022 10 16.09344 0 0
10:35 am 10:35 Sunny 72 22 46 8 41 41 Calm 30.18 1022 10 16.09344 0 0
10:55 am 10:55 Hazy 75 24 45 7 34 34 W 5 7 30.18 1022 2 3.218688 0 0
11:15 am 11:15 Sunny 77 25 46 8 34 34 WNW 8 13 30.15 1021 10 16.09344 0 0
11:35 am 11:35 Sunny 77 25 45 7 32 32 NNW 7 11 30.15 1021 10 16.09344 0 0
11:55 am 11:55 Sunny 79 26 45 7 30 30 NW 9 15 30.15 1021 10 16.09344 0 0
12:15 pm 12:15 Sunny 79 26 45 7 30 30 S 9 15 30.15 1021 10 16.09344 0 0
12:35 pm 12:35 Sunny 81 27 41 5 24 24 SE 8 13 30.12 1020 10 16.09344 0 0
12:55 pm 12:55 Sunny 81 27 41 5 24 24 SW 9 15 30.12 1020 10 16.09344 0 0
1:15 pm 13:15 Sunny 81 27 41 5 24 24 W 5 7 30.09 1019 10 16.09344 0 0
1:35 pm 13:35 Sunny 81 27 41 5 24 24 SE 7 11 30.09 1019 10 16.09344 0 0
1:55 pm 13:55 Sunny 82 28 41 5 23 23 SSW 13 20 30.09 1019 10 16.09344 0 0
2:15 pm 14:15 Sunny 82 28 39 4 21 21 S 14 22 30.06 1018 10 16.09344 0 0
2:35 pm 14:35 Sunny 82 28 41 5 23 23 SSW 13 20 30.06 1018 10 16.09344 0 0
2:55 pm 14:55 Sunny 82 28 41 5 23 23 S 14 22 30.06 1018 10 16.09344 0 0
3:15 pm 15:15 Sunny 82 28 41 5 23 23 S 17 28 30.06 1018 10 16.09344 0 0
3:35 pm 15:35 Sunny 82 28 41 5 23 23 S 15 24 30.06 1018 10 16.09344 0 0
3:55 pm 15:55 Sunny 82 28 41 5 23 23 SSW 14 22 30.03 1017 10 16.09344 0 0
4:15 pm 16:15 Sunny 82 28 41 5 23 23 S 14 22 30.03 1017 10 16.09344 0 0
4:35 pm 16:35 Sunny 82 28 41 5 23 23 S 15 24 30.03 1017 10 16.09344 0 0
4:55 pm 16:55 Sunny 81 27 41 5 24 24 SSW 10 17 30.03 1017 10 16.09344 0 0
5:15 pm 17:15 Sunny 81 27 41 5 24 24 SSW 13 20 30.06 1018 10 16.09344 0 0
5:35 pm 17:35 Sunny 79 26 41 5 26 26 S 13 20 30.03 1017 10 16.09344 0 0
5:55 pm 17:55 Sunny 77 25 41 5 28 28 SSW 12 19 30.03 1017 10 16.09344 0 0
6:15 pm 18:15 Clear 77 25 41 5 28 28 SSW 10 17 30.06 1018 10 16.09344 0 0
6:35 pm 18:35 Clear 75 24 39 4 27 27 S 8 13 30.06 1018 10 16.09344 0 0
6:55 pm 18:55 Clear 73 23 41 5 31 31 S 8 13 30.06 1018 10 16.09344 0 0
7:15 pm 19:15 Clear 72 22 41 5 33 33 S 10 17 30.06 1018 10 16.09344 0 0
7:35 pm 19:35 Clear 70 21 43 6 38 38 S 9 15 30.06 1018 10 16.09344 0 0
7:55 pm 19:55 Clear 70 21 45 7 40 40 S 9 15 30.06 1018 10 16.09344 0 0
8:15 pm 20:15 Clear 70 21 46 8 43 43 S 8 13 30.06 1018 10 16.09344 0 0
8:35 pm 20:35 Clear 68 20 46 8 46 46 SSW 6 9 30.06 1018 10 16.09344 0 0
8:55 pm 20:55 Clear 68 20 50 10 53 53 SSW 8 13 30.06 1018 10 16.09344 0 0
9:15 pm 21:15 Clear 68 20 50 10 53 53 S 8 13 30.06 1018 10 16.09344 0 0
9:35 pm 21:35 Clear 66 19 50 10 56 56 S 7 11 30.06 1018 10 16.09344 0 0
9:55 pm 21:55 Clear 66 19 52 11 60 60 S 7 11 30.06 1018 10 16.09344 0 0
10:15 pm 22:15 Clear 64 18 52 11 64 64 S 7 11 30.06 1018 10 16.09344 0 0
10:35 pm 22:35 Clear 64 18 52 11 64 64 S 6 9 30.06 1018 10 16.09344 0 0
10:55 pm 22:55 Clear 64 18 52 11 64 64 S 5 7 30.06 1018 10 16.09344 0 0
11:15 pm 23:15 Clear 64 18 52 11 64 64 SSW 6 9 30.06 1018 10 16.09344 0 0
11:35 pm 23:35 Clear 64 18 52 11 64 64 SSW 6 9 30.09 1019 10 16.09344 0 0
11:55 pm 23:55 Clear 64 18 52 11 64 64 SW 3 6 30.09 1019 10 16.09344 0 0

Powered by AerisWeather